星链-35285(STARLINK-35285)

导读

STARLINK-35285是美国SpaceX星链互联网星座中的一颗卫星,于2025年9月26日发射升空,承担低轨全球互联网覆盖服务任务。作为星链星座扩容的组成部分,它延续了星链卫星设计,运行在近地轨道,可为全球偏远、无网络覆盖区域提供高速互联网接入服务,助力美国低轨通信基础设施组网。

Basic Information
目录编号:
65807
目录名称:
STARLINK-35285
国际标识:
2025-218S
轨道中心:
EARTH
卫星名称:
星链-35285
卫星全名:
星链-35285(STARLINK-35285)
卫星状态:
在轨 (已飞行343 天)
发射日期:
2025-09-26 UTC
国别 :
美国 (US)
星等 :
--
Orbit Information
数据来源 国际轨道数据
星历时间: 2026-09-04T12:00:02+0800
7小时前
查看轨道信息
半长轴: 6875.063km
偏心率: 0.0000116
轨道倾角: 97.284°
近地点辐角 136.623°
升交点赤经 104.749°
平近点角 89.551°
近地点: 496.846km
远地点: 497.006km
周期: 94.553分钟
每日圈数: 15.229575
Detailed Information
固有亮度:
5
最大亮度:
2.5
卫星平台:
Starlink V1.0
覆盖范围:
全球
运营商:
太空探索技术公司
运营商所在国:
美国
制造商(研发单位):
太空探索技术公司
制造商所在国:
美国
使用方式:
暂无
Satellite Introduction
Starlink 计划是 SpaceX 推出的全球卫星互联网项目,通过发射低轨道卫星,为全球尤其是偏远地区提供高速、低延迟的互联网服务。自 2019 年起,Starlink 已部署数千颗卫星,旨在缩小全球数字鸿沟,推动互联网普及。该项目还为军事、航空等行业提供通信支持,带来广泛经济效益。
2D Orbit Map
3D Orbit Map
Orbit Altitude Analysis Chart
Orbit Inclination Analysis Chart
Orbit Comprehensive Analysis Chart
View Comprehensive Chart
Conjunction Data List
Event ID Objects TCA Miss Dist (km) Collision Risk Probability Collision Risk Index (CRI) Action
CDM_260905-044505-371806-580721
2026-09-05T
04:45:38+0000
0.682 km
远距离
6.325924E-5 中风险 0.71
CDM_260904-120306-323506-580721
OTP-2 (63235)
2026-09-04T
12:03:33+0000
1.164 km
极远距离
6.856313E-6 低风险 0.52
CDM_260904-185506-580706-643921
2026-09-04T
18:55:46+0000
2.398 km
极远距离
1.758595E-6 低风险 0.4
CDM_260905-053206-237806-580721
2026-09-05T
05:32:33+0000
2.408 km
极远距离
1.68716E-6 低风险 0.4
CDM_260905-035805-371806-580721
2026-09-05T
03:58:38+0000
2.463 km
极远距离
1.287931E-6 低风险 0.37
CDM_260905-114606-564506-580721
2026-09-05T
11:46:07+0000
2.879 km
极远距离
1.181432E-6 低风险 0.36